Hourly Data Report for May 17, 2022

ATIKOKAN (AUT)
ONTARIO
Current Station Operator: ECCC - MSC

48°45'40.000" N
91°37'41.000" W
389.30 m
6020LPQ
71747
WCH

Download Data

Hourly Data (May 2022)
Hourly Data Report for May 17, 2022
TIME
LST
Temp Definition
°C
Dew Point Definition
°C
Rel Hum Definition
%
Precip. Amount Definition
mm

Wind Dir Definition
10's deg

Wind Spd Definition
km/h
Visibility Definition
km
Stn Press Definition
kPa
Hmdx Definition


Wind Chill Definition


Weather Definition


00:00 0.8 0.3 96 0.0 0 1   97.05     LegendNANA
01:00 0.0 -0.5 97 0.0 0 1   97.10   0 LegendNANA
02:00 -0.8 -1.1 97 0.0   0   97.14     LegendNANA
03:00 -0.9 -1.2 98 0.0 8 2   97.15   -2 LegendNANA
04:00 -1.5 -1.9 97 0.0 0 1   97.19   -2 LegendNANA
05:00 -1.2 -1.5 98 0.0 0 1   97.23   -2 LegendNANA
06:00 0.9 0.2 96 0.0 17 1   97.28     LegendNANA
07:00 5.0 1.0 75 0.0 18 1   97.34     LegendNANA
08:00 7.6 0.1 59 0.0 14 3   97.31     LegendNANA
09:00 9.0 -0.8 50 0.0 9 5   97.31     LegendNANA
10:00 10.5 -0.5 46 0.0 17 2   97.31     LegendNANA
11:00 11.8 -0.6 42 0.0 17 6   97.21     LegendNANA
12:00 13.6 -0.7 37 0.0 2 5   97.17     LegendNANA
13:00 13.9 -1.3 35 0.0 7 9   97.12     LegendNANA
14:00 14.5 -1.1 34 0.0 8 4   97.09     LegendNANA
15:00 15.4 -1.5 31 0.0 29 6   97.02     LegendNANA
16:00 15.5 -0.9 32 0.0 11 5   96.98     LegendNANA
17:00 15.9 -1.2 31 0.0 14 1   96.94     LegendNANA
18:00 15.2 0.0 35 0.0 13 2   96.90     LegendNANA
19:00 14.1 -0.1 38 0.0 10 5   96.87     LegendNANA
20:00 10.7 1.8 54 0.0 6 3   96.87     LegendNANA
21:00 9.4 3.9 69 0.0 5 1   96.88     LegendNANA
22:00 7.3 4.4 82 0.0 5 1   96.86     LegendNANA
23:00 7.9 4.5 79 0.0 7 2   96.83     LegendNANA

Notes on Data Quality.

Legend

  • E = Estimated
  • M = Missing
  • NA = Not Available*
  • [empty] = Indicates an unobserved value
Date modified: